,,,PA_Meas_PMT16A,,PR_Meas_QMR101_102,,RH_Meas_QMH101,,SR_Meas_QMS101,,TA_Meas_QMH101,,GenWind,,GenWind,
date,time,status,PA,status,PR,status,RH,status,SR,status,TA,status,DirAvg,status,SpdAvg,
2010-06-11, 00:00:04,VALID,1005.28,VALID,0,VALID,89.4257,VALID,0,VALID,26.2174,VALID,356,VALID,0.846094,
2010-06-11, 00:01:04,VALID,1005.26,VALID,0,VALID,89.296,VALID,0,VALID,26.2154,VALID,355,VALID,0.612891,
2010-06-11, 00:02:04,VALID,1005.26,VALID,0,VALID,89.1587,VALID,0,VALID,26.2329,VALID,353,VALID,0.592969,
2010-06-11, 00:03:04,VALID,1005.24,VALID,0,VALID,88.8536,VALID,0,VALID,26.3128,VALID,22,VALID,0.522656,
2010-06-11, 00:04:04,VALID,1005.25,VALID,0,VALID,88.5026,VALID,0,VALID,26.3303,VALID,22,VALID,0.462109,
2010-06-11, 00:05:04,VALID,1005.21,VALID,0,VALID,88.3348,VALID,0,VALID,26.4102,VALID,26,VALID,0.657031,
2010-06-11, 00:06:04,VALID,1005.21,VALID,0,VALID,88.0602,VALID,0,VALID,26.4492,VALID,356,VALID,1.05039,
2010-06-11, 00:07:04,VALID,1005.2,VALID,0,VALID,87.4804,VALID,0,VALID,26.5855,VALID,27,VALID,1.275,
2010-06-11, 00:08:04,VALID,1005.21,VALID,0,VALID,86.9616,VALID,0.100563,VALID,26.6614,VALID,1,VALID,1.22734,
2010-06-11, 00:09:04,VALID,1005.21,VALID,0,VALID,86.748,VALID,0,VALID,26.6809,VALID,5,VALID,0.926953,
2010-06-11, 00:10:04,VALID,1005.24,VALID,0,VALID,86.8929,VALID,0,VALID,26.6635,VALID,7,VALID,0.503516,
2010-06-11, 00:11:04,VALID,1005.23,VALID,0,VALID,87.2286,VALID,0,VALID,26.5855,VALID,7,VALID,0.432422,
2010-06-11, 00:12:04,VALID,1005.21,VALID,0,VALID,87.5567,VALID,0,VALID,26.5076,VALID,12,VALID,0.642578,
2010-06-11, 00:13:04,VALID,1005.2,VALID,0,VALID,87.6787,VALID,0,VALID,26.5271,VALID,357,VALID,0.710547,
2010-06-11, 00:14:04,VALID,1005.18,VALID,0,VALID,87.6711,VALID,0,VALID,26.4861,VALID,356,VALID,0.598437,
2010-06-11, 00:15:04,VALID,1005.17,VALID,0,VALID,87.7092,VALID,0,VALID,26.5076,VALID,360,VALID,0.960156,
2010-06-11, 00:16:04,VALID,1005.15,VALID,0,VALID,87.961,VALID,0,VALID,26.4277,VALID,5,VALID,1.16719,
2010-06-11, 00:17:04,VALID,1005.13,VALID,0,VALID,88.0373,VALID,0,VALID,26.4687,VALID,4,VALID,0.922656,
2010-06-11, 00:18:04,VALID,1005.12,VALID,0,VALID,88.0983,VALID,0,VALID,26.4472,VALID,4,VALID,0.632031,
2010-06-11, 00:19:04,VALID,1005.11,VALID,0,VALID,88.2433,VALID,0,VALID,26.4492,VALID,4,VALID,0.636719,
2010-06-11, 00:20:04,VALID,1005.11,VALID,0,VALID,88.5789,VALID,0,VALID,26.3713,VALID,21,VALID,0.889063,
2010-06-11, 00:21:04,VALID,1005.11,VALID,0,VALID,88.8459,VALID,0,VALID,26.3518,VALID,27,VALID,0.582422,
2010-06-11, 00:22:04,VALID,1005.08,VALID,0,VALID,88.9146,VALID,0,VALID,26.3518,VALID,19,VALID,0.541797,
2010-06-11, 00:23:04,VALID,1005.11,VALID,0,VALID,89.0443,VALID,0,VALID,26.3713,VALID,19,VALID,0.785547,
2010-06-11, 00:24:04,VALID,1005.11,VALID,0,VALID,89.0214,VALID,0,VALID,26.3518,VALID,20,VALID,0.677734,
2010-06-11, 00:25:04,VALID,1005.09,VALID,0,VALID,88.9833,VALID,0,VALID,26.3887,VALID,20,VALID,0.457031,
2010-06-11, 00:26:04,VALID,1005.09,VALID,0,VALID,89.0901,VALID,0.100563,VALID,26.3693,VALID,21,VALID,0.534375,
2010-06-11, 00:27:04,VALID,1005.09,VALID,0,VALID,89.296,VALID,0,VALID,26.3518,VALID,16,VALID,0.670703,
2010-06-11, 00:28:04,VALID,1005.09,VALID,0,VALID,89.1969,VALID,0.100563,VALID,26.3108,VALID,355,VALID,0.586328,
2010-06-11, 00:29:04,VALID,1005.1,VALID,0,VALID,89.2655,VALID,0.100563,VALID,26.3498,VALID,12,VALID,0.475,
2010-06-11, 00:30:04,VALID,1005.03,VALID,0,VALID,89.2198,VALID,0,VALID,26.3498,VALID,13,VALID,0.717578,
2010-06-11, 00:31:04,VALID,1005.03,VALID,0,VALID,89.3494,VALID,0,VALID,26.3518,VALID,12,VALID,0.586719,
2010-06-11, 00:32:04,VALID,1004.99,VALID,0,VALID,89.8606,VALID,0,VALID,26.3128,VALID,12,VALID,0.396094,
2010-06-11, 00:33:04,VALID,1004.99,VALID,0,VALID,90.8371,VALID,0,VALID,26.2564,VALID,12,VALID,0.429688,
2010-06-11, 00:34:04,VALID,1004.98,VALID,0,VALID,92.1492,VALID,0,VALID,26.194,VALID,347,VALID,0.65,
2010-06-11, 00:35:04,VALID,1005.01,VALID,0,VALID,93.9344,VALID,0,VALID,26.1375,VALID,25,VALID,0.6,
2010-06-11, 00:36:04,VALID,1005.01,VALID,0,VALID,94.7507,VALID,0,VALID,26.12,VALID,25,VALID,0.224219,
2010-06-11, 00:37:04,VALID,1005.04,VALID,0,VALID,95.2771,VALID,0,VALID,26.1005,VALID,25,VALID,0.398438,
2010-06-11, 00:38:04,VALID,1004.99,VALID,0,VALID,95.6662,VALID,0,VALID,26.0596,VALID,25,VALID,0.266797,
2010-06-11, 00:39:04,VALID,1004.99,VALID,0,VALID,95.895,VALID,0,VALID,26.0206,VALID,25,VALID,0.301172,
2010-06-11, 00:40:04,VALID,1004.96,VALID,0,VALID,96.0934,VALID,0,VALID,25.9797,VALID,25,VALID,0.445703,
2010-06-11, 00:41:04,VALID,1004.94,VALID,0,VALID,96.2383,VALID,0,VALID,25.9602,VALID,25,VALID,0.448828,
2010-06-11, 00:42:04,VALID,1004.93,VALID,0,VALID,96.3756,VALID,0,VALID,25.9427,VALID,25,VALID,0.567187,
2010-06-11, 00:43:04,VALID,1004.89,VALID,0,VALID,96.5587,VALID,0,VALID,25.9232,VALID,25,VALID,0.398828,
2010-06-11, 00:44:04,VALID,1004.86,VALID,0,VALID,96.6961,VALID,0,VALID,25.8823,VALID,25,VALID,0.455469,
2010-06-11, 00:45:04,VALID,1004.83,VALID,0,VALID,96.8105,VALID,0,VALID,25.8843,VALID,7,VALID,0.490625,
2010-06-11, 00:46:04,VALID,1004.81,VALID,0,VALID,96.9326,VALID,0,VALID,25.8668,VALID,7,VALID,0.533984,
2010-06-11, 00:47:04,VALID,1004.77,VALID,0,VALID,96.9783,VALID,0,VALID,25.8259,VALID,5,VALID,0.491797,
2010-06-11, 00:48:04,VALID,1004.72,VALID,0,VALID,97.0165,VALID,0,VALID,25.8453,VALID,3,VALID,0.40625,
2010-06-11, 00:49:04,VALID,1004.71,VALID,0,VALID,97.0317,VALID,0,VALID,25.8648,VALID,3,VALID,0.213672,
2010-06-11, 00:50:04,VALID,1004.68,VALID,0,VALID,97.047,VALID,0,VALID,25.8453,VALID,3,VALID,0.255859,
2010-06-11, 00:51:04,VALID,1004.64,VALID,0,VALID,97.0699,VALID,0,VALID,25.8259,VALID,3,VALID,0.457812,
2010-06-11, 00:52:04,VALID,1004.66,VALID,0,VALID,97.108,VALID,0,VALID,25.8259,VALID,3,VALID,0.281641,
2010-06-11, 00:53:04,VALID,1004.62,VALID,0,VALID,97.1843,VALID,0,VALID,25.8064,VALID,3,VALID,0.512109,
2010-06-11, 00:54:04,VALID,1004.63,VALID,0,VALID,97.2301,VALID,0,VALID,25.8083,VALID,17,VALID,0.690625,
2010-06-11, 00:55:04,VALID,1004.62,VALID,0,VALID,97.3293,VALID,0,VALID,25.7674,VALID,17,VALID,0.476563,
2010-06-11, 00:56:04,VALID,1004.61,VALID,0,VALID,97.4284,VALID,0,VALID,25.748,VALID,17,VALID,0.415625,
2010-06-11, 00:57:04,VALID,1004.56,VALID,0,VALID,97.5124,VALID,0,VALID,25.7285,VALID,26,VALID,0.575,
2010-06-11, 00:58:04,VALID,1004.56,VALID,0,VALID,97.6115,VALID,0,VALID,25.7285,VALID,15,VALID,0.882422,
2010-06-11, 00:59:04,VALID,1004.59,VALID,0.5,VALID,97.6649,VALID,0,VALID,25.7655,VALID,355,VALID,0.576563,
2010-06-11, 01:00:04,VALID,1004.61,VALID,0,VALID,97.6192,VALID,0,VALID,25.8259,VALID,33,VALID,0.694531,
2010-06-11, 01:01:04,VALID,1004.63,VALID,0,VALID,97.4513,VALID,0,VALID,25.9038,VALID,40,VALID,0.370703,
2010-06-11, 01:02:04,VALID,1004.65,VALID,0,VALID,97.2606,VALID,0,VALID,25.9232,VALID,56,VALID,0.0804688,
2010-06-11, 01:03:04,VALID,1004.63,VALID,0,VALID,97.108,VALID,0,VALID,25.9622,VALID,57,VALID,0.404297,
2010-06-11, 01:04:04,VALID,1004.55,VALID,0,VALID,97.0851,VALID,0,VALID,26.0031,VALID,115,VALID,0.567187,
2010-06-11, 01:05:04,VALID,1004.54,VALID,0,VALID,97.0165,VALID,0,VALID,26.0012,VALID,115,VALID,0.51875,
2010-06-11, 01:06:04,VALID,1004.53,VALID,0,VALID,96.9936,VALID,0,VALID,26.0012,VALID,102,VALID,0.579297,
2010-06-11, 01:07:04,VALID,1004.52,VALID,0,VALID,96.9554,VALID,0,VALID,26.0401,VALID,104,VALID,1.30938,
2010-06-11, 01:08:04,VALID,1004.52,VALID,0,VALID,96.8334,VALID,0,VALID,26.0791,VALID,107,VALID,0.608984,
2010-06-11, 01:09:04,VALID,1004.5,VALID,0,VALID,96.6503,VALID,0,VALID,26.0985,VALID,123,VALID,0.828906,
2010-06-11, 01:10:04,VALID,1004.51,VALID,0,VALID,96.6655,VALID,0,VALID,26.0985,VALID,142,VALID,1.11211,
2010-06-11, 01:11:04,VALID,1004.48,VALID,0,VALID,96.6884,VALID,0,VALID,26.0596,VALID,141,VALID,1.17656,
2010-06-11, 01:12:04,VALID,1004.51,VALID,0,VALID,96.7876,VALID,0,VALID,26.0206,VALID,139,VALID,0.913672,
2010-06-11, 01:13:04,VALID,1004.48,VALID,0.5,VALID,96.902,VALID,0,VALID,25.9602,VALID,116,VALID,0.581641,
2010-06-11, 01:14:04,VALID,1004.48,VALID,0,VALID,97.1156,VALID,0,VALID,25.9018,VALID,116,VALID,0.333984,
2010-06-11, 01:15:04,VALID,1004.46,VALID,0,VALID,97.2759,VALID,0,VALID,25.8843,VALID,94,VALID,0.762109,
2010-06-11, 01:16:04,VALID,1004.45,VALID,0,VALID,97.4055,VALID,0,VALID,25.8259,VALID,115,VALID,0.733203,
2010-06-11, 01:17:04,VALID,1004.42,VALID,0,VALID,97.4742,VALID,0,VALID,25.7655,VALID,116,VALID,0.475781,
2010-06-11, 01:18:04,VALID,1004.38,VALID,0,VALID,97.5352,VALID,0,VALID,25.7869,VALID,107,VALID,0.101953,
2010-06-11, 01:19:04,VALID,1004.4,VALID,0,VALID,97.581,VALID,0,VALID,25.7674,VALID,49,VALID,0.636719,
2010-06-11, 01:20:04,VALID,1004.39,VALID,0,VALID,97.7031,VALID,0,VALID,25.709,VALID,33,VALID,0.564453,
2010-06-11, 01:21:04,VALID,1004.42,VALID,0,VALID,97.8175,VALID,0,VALID,25.6895,VALID,27,VALID,0.600391,
2010-06-11, 01:22:04,VALID,1004.42,VALID,0,VALID,97.909,VALID,0,VALID,25.6506,VALID,18,VALID,0.508984,
2010-06-11, 01:23:04,VALID,1004.41,VALID,0,VALID,97.9777,VALID,0,VALID,25.6506,VALID,22,VALID,0.484375,
2010-06-11, 01:24:04,VALID,1004.45,VALID,0,VALID,98.0616,VALID,0,VALID,25.6097,VALID,9,VALID,0.845312,
2010-06-11, 01:25:04,VALID,1004.45,VALID,0,VALID,98.1227,VALID,0,VALID,25.6506,VALID,19,VALID,0.708984,
2010-06-11, 01:26:04,VALID,1004.45,VALID,0,VALID,98.1684,VALID,0,VALID,25.6311,VALID,7,VALID,0.487891,
2010-06-11, 01:27:04,VALID,1004.44,VALID,0,VALID,98.1837,VALID,0,VALID,25.6311,VALID,8,VALID,0.209766,
2010-06-11, 01:28:04,VALID,1004.51,VALID,0,VALID,98.199,VALID,0,VALID,25.6311,VALID,8,VALID,0,
2010-06-11, 01:29:04,VALID,1004.57,VALID,0,VALID,98.1913,VALID,0,VALID,25.6311,VALID,76,VALID,0.705859,
2010-06-11, 01:30:04,VALID,1004.64,VALID,0,VALID,98.2142,VALID,0,VALID,25.6116,VALID,134,VALID,1.83086,
2010-06-11, 01:31:04,VALID,1004.66,VALID,0,VALID,98.2447,VALID,0,VALID,25.5727,VALID,146,VALID,2.07383,
2010-06-11, 01:32:04,VALID,1004.63,VALID,0,VALID,98.199,VALID,0,VALID,25.4928,VALID,134,VALID,1.88164,
2010-06-11, 01:33:04,VALID,1004.57,VALID,0,VALID,98.1455,VALID,0,VALID,25.4948,VALID,134,VALID,0.7875,
2010-06-11, 01:34:04,VALID,1004.59,VALID,0,VALID,98.1379,VALID,0,VALID,25.4753,VALID,122,VALID,0.01875,
2010-06-11, 01:35:04,VALID,1004.57,VALID,0,VALID,98.1455,VALID,0,VALID,25.4558,VALID,96,VALID,0.235156,
2010-06-11, 01:36:04,VALID,1004.58,VALID,0,VALID,98.1227,VALID,0,VALID,25.4344,VALID,26,VALID,0.552734,
2010-06-11, 01:37:04,VALID,1004.55,VALID,0,VALID,98.1455,VALID,0,VALID,25.4344,VALID,354,VALID,0.536328,
2010-06-11, 01:38:04,VALID,1004.54,VALID,0,VALID,98.1608,VALID,0,VALID,25.4363,VALID,351,VALID,0.254297,
2010-06-11, 01:39:04,VALID,1004.55,VALID,0,VALID,98.1913,VALID,0,VALID,25.4363,VALID,351,VALID,0.328125,
2010-06-11, 01:40:04,VALID,1004.53,VALID,0,VALID,98.199,VALID,0,VALID,25.4169,VALID,351,VALID,0.205469,
2010-06-11, 01:41:04,VALID,1004.51,VALID,0,VALID,98.2066,VALID,0,VALID,25.3974,VALID,351,VALID,0.133203,
2010-06-11, 01:42:04,VALID,1004.5,VALID,0,VALID,98.2295,VALID,0,VALID,25.3974,VALID,351,VALID,0,
2010-06-11, 01:43:04,VALID,1004.53,VALID,0,VALID,98.2447,VALID,0,VALID,25.3779,VALID,351,VALID,0,
2010-06-11, 01:44:04,VALID,1004.52,VALID,0,VALID,98.2752,VALID,0,VALID,25.3584,VALID,351,VALID,0,
2010-06-11, 01:45:04,VALID,1004.5,VALID,0,VALID,98.2676,VALID,0,VALID,25.3176,VALID,351,VALID,0,
2010-06-11, 01:46:04,VALID,1004.5,VALID,0,VALID,98.2905,VALID,0,VALID,25.2981,VALID,351,VALID,0,
2010-06-11, 01:47:04,VALID,1004.49,VALID,0,VALID,98.3058,VALID,0,VALID,25.3195,VALID,236,VALID,0.956641,
2010-06-11, 01:48:04,VALID,1004.5,VALID,0,VALID,98.3286,VALID,0,VALID,25.3195,VALID,232,VALID,0.434766,
2010-06-11, 01:49:04,VALID,1004.54,VALID,0,VALID,98.3439,VALID,0,VALID,25.2806,VALID,232,VALID,0.499609,
2010-06-11, 01:50:04,VALID,1004.57,VALID,0,VALID,98.3439,VALID,0,VALID,25.2806,VALID,232,VALID,0.0421875,
2010-06-11, 01:51:04,VALID,1004.59,VALID,0,VALID,98.3668,VALID,0,VALID,25.2202,VALID,232,VALID,0.059375,
2010-06-11, 01:52:04,VALID,1004.61,VALID,0,VALID,98.3592,VALID,0,VALID,25.2221,VALID,232,VALID,0.327344,
2010-06-11, 01:53:04,VALID,1004.62,VALID,0,VALID,98.382,VALID,0,VALID,25.1618,VALID,351,VALID,0.58125,
2010-06-11, 01:54:04,VALID,1004.6,VALID,0,VALID,98.3973,VALID,0,VALID,25.1813,VALID,351,VALID,0.608984,
2010-06-11, 01:55:04,VALID,1004.63,VALID,0,VALID,98.4049,VALID,0,VALID,25.1618,VALID,351,VALID,0.590625,
2010-06-11, 01:56:04,VALID,1004.64,VALID,0,VALID,98.4431,VALID,0,VALID,25.1423,VALID,351,VALID,0.546094,
2010-06-11, 01:57:04,VALID,1004.63,VALID,0,VALID,98.4431,VALID,0.100563,VALID,25.1637,VALID,351,VALID,0.321875,
2010-06-11, 01:58:04,VALID,1004.59,VALID,0,VALID,98.4812,VALID,0,VALID,25.1229,VALID,351,VALID,0.394531,
2010-06-11, 01:59:04,VALID,1004.58,VALID,0,VALID,98.4965,VALID,0,VALID,25.1034,VALID,351,VALID,0.39375,
2010-06-11, 02:00:04,VALID,1004.6,VALID,0,VALID,98.4965,VALID,0,VALID,25.1248,VALID,351,VALID,0.435547,
2010-06-11, 02:01:04,VALID,1004.6,VALID,0,VALID,98.5194,VALID,0,VALID,25.0644,VALID,351,VALID,0.497266,
2010-06-11, 02:02:04,VALID,1004.62,VALID,0,VALID,98.5194,VALID,0,VALID,25.0663,VALID,351,VALID,0.75625,
2010-06-11, 02:03:04,VALID,1004.6,VALID,0,VALID,98.5194,VALID,0.100563,VALID,25.0469,VALID,351,VALID,0.711328,
2010-06-11, 02:04:04,VALID,1004.6,VALID,0,VALID,98.5499,VALID,0,VALID,25.006,VALID,352,VALID,0.838281,
2010-06-11, 02:05:04,VALID,1004.56,VALID,0,VALID,98.5423,VALID,0,VALID,25.0255,VALID,356,VALID,0.839844,
2010-06-11, 02:06:04,VALID,1004.52,VALID,0,VALID,98.5575,VALID,0,VALID,25.0079,VALID,356,VALID,0.774609,
2010-06-11, 02:07:04,VALID,1004.51,VALID,0,VALID,98.5575,VALID,0,VALID,24.9866,VALID,356,VALID,0.424219,
2010-06-11, 02:08:04,VALID,1004.51,VALID,0,VALID,98.588,VALID,0,VALID,24.9866,VALID,356,VALID,0.671094,
2010-06-11, 02:09:04,VALID,1004.52,VALID,0,VALID,98.5804,VALID,0,VALID,24.9671,VALID,8,VALID,0.681641,
2010-06-11, 02:10:04,VALID,1004.52,VALID,0,VALID,98.5651,VALID,0,VALID,24.9495,VALID,8,VALID,0.428516,
2010-06-11, 02:11:04,VALID,1004.5,VALID,0,VALID,98.5651,VALID,0,VALID,24.9495,VALID,8,VALID,0.359375,
2010-06-11, 02:12:04,VALID,1004.51,VALID,0,VALID,98.588,VALID,0,VALID,24.9087,VALID,8,VALID,0.41875,
2010-06-11, 02:13:04,VALID,1004.48,VALID,0,VALID,98.5728,VALID,0,VALID,24.9087,VALID,8,VALID,0.397656,
2010-06-11, 02:14:04,VALID,1004.52,VALID,0,VALID,98.5956,VALID,0.100563,VALID,24.9087,VALID,8,VALID,0.476563,
2010-06-11, 02:15:04,VALID,1004.51,VALID,0,VALID,98.5804,VALID,0,VALID,24.9106,VALID,8,VALID,0.232812,
2010-06-11, 02:16:04,VALID,1004.51,VALID,0,VALID,98.5804,VALID,0,VALID,24.93,VALID,8,VALID,0.668359,
2010-06-11, 02:17:04,VALID,1004.51,VALID,0,VALID,98.5956,VALID,0.100563,VALID,24.93,VALID,8,VALID,0.477734,
2010-06-11, 02:18:04,VALID,1004.5,VALID,0,VALID,98.5651,VALID,0,VALID,24.93,VALID,7,VALID,0.497656,
2010-06-11, 02:19:04,VALID,1004.48,VALID,0,VALID,98.5804,VALID,0,VALID,24.9282,VALID,3,VALID,0.636328,
2010-06-11, 02:20:04,VALID,1004.45,VALID,0,VALID,98.6109,VALID,0,VALID,24.9495,VALID,3,VALID,0.563281,
2010-06-11, 02:21:04,VALID,1004.39,VALID,0,VALID,98.5956,VALID,0,VALID,24.9495,VALID,3,VALID,0.219922,
2010-06-11, 02:22:04,VALID,1004.35,VALID,0,VALID,98.6109,VALID,0.100563,VALID,24.9495,VALID,14,VALID,0.53125,
2010-06-11, 02:23:04,VALID,1004.31,VALID,0,VALID,98.6185,VALID,0.100563,VALID,24.9495,VALID,14,VALID,0.164844,
2010-06-11, 02:24:04,VALID,1004.3,VALID,0,VALID,98.6262,VALID,0,VALID,24.9087,VALID,14,VALID,0.732813,
2010-06-11, 02:25:04,VALID,1004.26,VALID,0,VALID,98.6262,VALID,0,VALID,24.8484,VALID,13,VALID,0.485156,
2010-06-11, 02:26:04,VALID,1004.23,VALID,0,VALID,98.6033,VALID,0,VALID,24.8308,VALID,13,VALID,0.588281,
2010-06-11, 02:27:04,VALID,1004.24,VALID,0,VALID,98.6033,VALID,0,VALID,24.8503,VALID,13,VALID,0.549219,
2010-06-11, 02:28:04,VALID,1004.21,VALID,0,VALID,98.5804,VALID,0,VALID,24.8522,VALID,13,VALID,0.526563,
2010-06-11, 02:29:04,VALID,1004.2,VALID,0,VALID,98.5804,VALID,0,VALID,24.8522,VALID,13,VALID,0.505859,
2010-06-11, 02:30:04,VALID,1004.18,VALID,0,VALID,98.5728,VALID,0.100563,VALID,24.8716,VALID,11,VALID,0.464453,
2010-06-11, 02:31:04,VALID,1004.19,VALID,0,VALID,98.5728,VALID,0,VALID,24.8911,VALID,11,VALID,0.375,
2010-06-11, 02:32:04,VALID,1004.22,VALID,0,VALID,98.5575,VALID,0,VALID,24.8697,VALID,21,VALID,0.573828,
2010-06-11, 02:33:04,VALID,1004.23,VALID,0,VALID,98.5728,VALID,0,VALID,24.9106,VALID,21,VALID,0.207031,
2010-06-11, 02:34:04,VALID,1004.21,VALID,0,VALID,98.5728,VALID,0,VALID,24.9087,VALID,21,VALID,0.442187,
2010-06-11, 02:35:04,VALID,1004.23,VALID,0,VALID,98.5194,VALID,0,VALID,24.9866,VALID,21,VALID,0.796484,
2010-06-11, 02:36:04,VALID,1004.21,VALID,0,VALID,98.527,VALID,0.100563,VALID,25.045,VALID,18,VALID,0.684766,
2010-06-11, 02:37:04,VALID,1004.2,VALID,0,VALID,98.4965,VALID,0,VALID,25.1442,VALID,16,VALID,0.793359,
2010-06-11, 02:38:04,VALID,1004.2,VALID,0,VALID,98.5194,VALID,0.100563,VALID,25.2221,VALID,3,VALID,0.418359,
2010-06-11, 02:39:04,VALID,1004.19,VALID,0,VALID,98.5575,VALID,0.100563,VALID,25.2416,VALID,2,VALID,0.626172,
2010-06-11, 02:40:04,VALID,1004.18,VALID,0,VALID,98.588,VALID,0.100563,VALID,25.2786,VALID,24,VALID,0.654688,
2010-06-11, 02:41:04,VALID,1004.15,VALID,0,VALID,98.5728,VALID,0.100563,VALID,25.337,VALID,359,VALID,1.01641,
2010-06-11, 02:42:04,VALID,1004.18,VALID,0,VALID,98.6262,VALID,0,VALID,25.4169,VALID,8,VALID,0.658594,
2010-06-11, 02:43:04,VALID,1004.16,VALID,0,VALID,98.6262,VALID,0,VALID,25.4344,VALID,31,VALID,1.26523,
2010-06-11, 02:44:04,VALID,1004.18,VALID,0,VALID,98.5804,VALID,0.100563,VALID,25.4714,VALID,14,VALID,0.698828,
2010-06-11, 02:45:04,VALID,1004.16,VALID,0,VALID,98.4888,VALID,0,VALID,25.5707,VALID,30,VALID,0.607813,
2010-06-11, 02:46:04,VALID,1004.16,VALID,0,VALID,98.3439,VALID,0,VALID,25.6311,VALID,1,VALID,0.753906,
2010-06-11, 02:47:04,VALID,1004.15,VALID,0,VALID,98.0693,VALID,0,VALID,25.7285,VALID,17,VALID,0.670313,
2010-06-11, 02:48:04,VALID,1004.19,VALID,0,VALID,97.6954,VALID,0,VALID,25.7869,VALID,1,VALID,0.136719,
2010-06-11, 02:49:04,VALID,1004.2,VALID,0,VALID,97.3979,VALID,0,VALID,25.7674,VALID,34,VALID,1.07305,
2010-06-11, 02:50:04,VALID,1004.2,VALID,0,VALID,97.1538,VALID,0,VALID,25.8064,VALID,5,VALID,1.31484,
2010-06-11, 02:51:04,VALID,1004.21,VALID,0,VALID,96.8639,VALID,0,VALID,25.8453,VALID,2,VALID,0.885547,
2010-06-11, 02:52:04,VALID,1004.23,VALID,0,VALID,96.6198,VALID,0,VALID,25.8648,VALID,15,VALID,1.52656,
2010-06-11, 02:53:04,VALID,1004.24,VALID,0,VALID,96.2536,VALID,0,VALID,25.9427,VALID,21,VALID,0.976953,
2010-06-11, 02:54:04,VALID,1004.26,VALID,0,VALID,95.8721,VALID,0,VALID,26.0012,VALID,360,VALID,1.11406,
2010-06-11, 02:55:04,VALID,1004.28,VALID,0,VALID,94.1022,VALID,0,VALID,26.0401,VALID,1,VALID,0.771094,
2010-06-11, 02:56:04,VALID,1004.28,VALID,0,VALID,92.5765,VALID,0,VALID,26.0401,VALID,356,VALID,0.69375,
2010-06-11, 02:57:04,VALID,1004.26,VALID,0,VALID,91.9738,VALID,0,VALID,26.0596,VALID,24,VALID,0.917969,
2010-06-11, 02:58:04,VALID,1004.21,VALID,0,VALID,92.2027,VALID,0,VALID,26.0596,VALID,23,VALID,0.673828,
2010-06-11, 02:59:04,VALID,1004.18,VALID,0,VALID,92.6528,VALID,0,VALID,26.0206,VALID,14,VALID,0.687109,
2010-06-11, 03:00:04,VALID,1004.16,VALID,0,VALID,93.4996,VALID,0,VALID,25.9602,VALID,3,VALID,0.801562,
2010-06-11, 03:01:04,VALID,1004.13,VALID,0,VALID,93.6826,VALID,0,VALID,25.9622,VALID,341,VALID,0.877344,
2010-06-11, 03:02:04,VALID,1004.13,VALID,0,VALID,94.3235,VALID,0,VALID,25.9622,VALID,6,VALID,0.679688,
2010-06-11, 03:03:04,VALID,1004.14,VALID,0,VALID,94.6363,VALID,0,VALID,25.9447,VALID,6,VALID,0.688672,
2010-06-11, 03:04:04,VALID,1004.16,VALID,0,VALID,95.4602,VALID,0,VALID,25.8453,VALID,6,VALID,0.569922,
2010-06-11, 03:05:04,VALID,1004.19,VALID,0,VALID,96.1315,VALID,0,VALID,25.7869,VALID,21,VALID,0.28125,
2010-06-11, 03:06:04,VALID,1004.29,VALID,0,VALID,96.4825,VALID,0,VALID,25.7694,VALID,109,VALID,0.922266,
2010-06-11, 03:07:04,VALID,1004.35,VALID,0,VALID,96.7113,VALID,0,VALID,25.7285,VALID,94,VALID,1.08125,
2010-06-11, 03:08:04,VALID,1004.44,VALID,0,VALID,96.7723,VALID,0,VALID,25.7869,VALID,104,VALID,1.60898,
2010-06-11, 03:09:04,VALID,1004.51,VALID,0,VALID,96.3375,VALID,0,VALID,25.9232,VALID,130,VALID,2.32305,
2010-06-11, 03:10:04,VALID,1004.52,VALID,0,VALID,94.0183,VALID,0,VALID,25.9232,VALID,117,VALID,2.35781,
2010-06-11, 03:11:04,VALID,1004.54,VALID,1,VALID,93.6369,VALID,0,VALID,25.7674,VALID,135,VALID,3.16953,
2010-06-11, 03:12:04,VALID,1004.54,VALID,0.5,VALID,96.2078,VALID,0,VALID,25.5532,VALID,151,VALID,3.89609,
2010-06-11, 03:13:04,VALID,1004.3,VALID,1.5,VALID,97.0699,VALID,0,VALID,25.337,VALID,153,VALID,3.22383,
2010-06-11, 03:14:04,VALID,1004.2,VALID,0.5,VALID,97.6192,VALID,0,VALID,25.2416,VALID,160,VALID,1.57617,
2010-06-11, 03:15:04,VALID,1004.21,VALID,0,VALID,97.9701,VALID,0,VALID,25.1423,VALID,155,VALID,1.0168,
2010-06-11, 03:16:04,VALID,1004.24,VALID,0,VALID,98.1913,VALID,0,VALID,25.0858,VALID,156,VALID,1.03555,
2010-06-11, 03:17:04,VALID,1004.24,VALID,0,VALID,98.321,VALID,0,VALID,24.9885,VALID,181,VALID,1.79883,
2010-06-11, 03:18:04,VALID,1004.29,VALID,0,VALID,98.4431,VALID,0,VALID,24.9514,VALID,112,VALID,1.23672,
2010-06-11, 03:19:04,VALID,1004.28,VALID,0,VALID,98.4812,VALID,0,VALID,24.8522,VALID,133,VALID,0.932031,
2010-06-11, 03:20:04,VALID,1004.29,VALID,0,VALID,98.5575,VALID,0,VALID,24.7937,VALID,116,VALID,1.24336,
2010-06-11, 03:21:04,VALID,1004.32,VALID,0,VALID,98.5728,VALID,0,VALID,24.7353,VALID,115,VALID,1.12422,
2010-06-11, 03:22:04,VALID,1004.28,VALID,0,VALID,98.5956,VALID,0,VALID,24.6964,VALID,93,VALID,0.730469,
2010-06-11, 03:23:04,VALID,1004.18,VALID,0,VALID,98.6109,VALID,0,VALID,24.6769,VALID,181,VALID,0.7625,
2010-06-11, 03:24:04,VALID,1004.17,VALID,0,VALID,98.6109,VALID,0,VALID,24.6556,VALID,183,VALID,0.233984,
2010-06-11, 03:25:04,VALID,1004.19,VALID,0,VALID,98.6338,VALID,0,VALID,24.6964,VALID,182,VALID,0.359766,
2010-06-11, 03:26:04,VALID,1004.14,VALID,0,VALID,98.6338,VALID,0,VALID,24.6769,VALID,117,VALID,0.259766,
2010-06-11, 03:27:04,VALID,1004.18,VALID,0,VALID,98.6262,VALID,0,VALID,24.6769,VALID,81,VALID,0.528125,
2010-06-11, 03:28:04,VALID,1004.2,VALID,0,VALID,98.6338,VALID,0,VALID,24.6769,VALID,32,VALID,0.422656,
2010-06-11, 03:29:04,VALID,1004.18,VALID,0,VALID,98.6491,VALID,0,VALID,24.6769,VALID,32,VALID,0.221094,
2010-06-11, 03:30:04,VALID,1004.19,VALID,0,VALID,98.6491,VALID,0,VALID,24.6769,VALID,32,VALID,0.126172,
2010-06-11, 03:31:04,VALID,1004.21,VALID,0,VALID,98.6338,VALID,0.100563,VALID,24.6574,VALID,34,VALID,0.145703,
2010-06-11, 03:32:04,VALID,1004.19,VALID,0,VALID,98.7101,VALID,0,VALID,24.5777,VALID,96,VALID,0.633594,
2010-06-11, 03:33:04,VALID,1004.17,VALID,0,VALID,98.6872,VALID,0.100563,VALID,24.5582,VALID,104,VALID,0.436719,
2010-06-11, 03:34:04,VALID,1004.14,VALID,0,VALID,98.6872,VALID,0.100563,VALID,24.5406,VALID,110,VALID,0.715234,
2010-06-11, 03:35:04,VALID,1004.13,VALID,0,VALID,98.6948,VALID,0.100563,VALID,24.4998,VALID,104,VALID,0.651172,
2010-06-11, 03:36:04,VALID,1004.13,VALID,0.5,VALID,98.7025,VALID,0,VALID,24.4822,VALID,91,VALID,0.637109,
2010-06-11, 03:37:04,VALID,1004.12,VALID,0,VALID,98.7025,VALID,0,VALID,24.4414,VALID,113,VALID,1.14766,
2010-06-11, 03:38:04,VALID,1004.17,VALID,0,VALID,98.7177,VALID,0.100563,VALID,24.4414,VALID,102,VALID,0.979297,
2010-06-11, 03:39:04,VALID,1004.19,VALID,0,VALID,98.7025,VALID,0,VALID,24.4609,VALID,111,VALID,1.4082,
2010-06-11, 03:40:04,VALID,1004.24,VALID,0,VALID,98.6948,VALID,0.100563,VALID,24.4804,VALID,100,VALID,1.02969,
2010-06-11, 03:41:04,VALID,1004.27,VALID,0,VALID,98.7177,VALID,0.100563,VALID,24.4804,VALID,105,VALID,1.53594,
2010-06-11, 03:42:04,VALID,1004.31,VALID,0,VALID,98.7253,VALID,0.100563,VALID,24.4998,VALID,120,VALID,1.30156,
2010-06-11, 03:43:04,VALID,1004.34,VALID,0,VALID,98.7482,VALID,0.100563,VALID,24.5601,VALID,124,VALID,1.85273,
2010-06-11, 03:44:04,VALID,1004.35,VALID,0,VALID,98.7482,VALID,0.100563,VALID,24.5388,VALID,99,VALID,0.942187,